Regional Weather Roundup
Issued by NWS

Home | Current Version | Previous Version | Graphics & Text | Print | Product List | Glossary On
Versions: 1 2 3 4 5 6 7 8 9 10 11 12 13 14 15 16 17 18 19 20 21 22 23 24 25 26 27
000
ASUS45 KSLC 230410
RWRUT

UTAH REGIONAL WEATHER ROUNDUP
NATIONAL WEATHER SERVICE SALT LAKE CITY UT
900 PM MST WED NOV 22 2017

UTZ001>011-023>025-230500-

NORTHERN UTAH

CITY           SKY/WX    TMP DP  RH WIND       PRES   REMARKS
BRIGHAM CITY   MOCLDY    48  42  77 NW6       30.39R
HILL AFB       PTCLDY    50  40  69 E8        30.38S
LOGAN          MOCLDY    43  40  89 N3        30.38S
OGDEN          PTCLDY    48  41  76 S9        30.37S
SALT LAKE CITY MOCLDY    50  42  74 CALM      30.38R
TOOELE VALLEY  PTCLDY    43  41  93 CALM      30.39S
WENDOVER       PTCLDY    42  34  73 CALM      30.37F
HEBER CITY       N/A     39  36  87 CALM      30.43R
WEST JORDAN    MOCLDY    47  43  85 CALM      30.40R

$$

UTZ011>015-024>027-230500-

CENTRAL/NORTHEAST UTAH

CITY           SKY/WX    TMP DP  RH WIND       PRES   REMARKS
PROVO AIRPORT  MOCLDY    44  37  76 NW5       30.41R
MOAB/CANYONLAN MOCLDY    43  23  45 SW3       30.38S
DELTA          MOCLDY    50  34  53 CALM      30.39R
PRICE          CLOUDY    43  29  57 N7        30.42F
RICHFIELD      CLEAR     39  37  93 CALM      30.44R
ROOSEVELT      CLOUDY    37  30  75 W6        30.41F WCI  33
VERNAL         CLOUDY    43  32  65 NW3       30.40S

$$

UTZ013>016-019>022-027-230500-

SOUTHERN UTAH

CITY           SKY/WX    TMP DP  RH WIND       PRES   REMARKS
BRYCE CANYON   CLEAR     33  27  78 W8        30.51S WCI  26
CEDAR CITY     CLEAR     45  35  68 S6        30.39F
MILFORD        PTCLDY    44  34  67 CALM      30.39R
ST GEORGE      MOCLDY    59  31  34 CALM      30.28R
HANKSVILLE     PTCLDY    39  18  41 CALM      30.41S
KANAB          CLEAR     52  30  43 N6        30.41S
BLANDING         N/A     47  31  54 N7        30.48R

$$

REGIONAL REPORTS     COLORADO/ARIZONA

CITY           SKY/WX    TMP DP  RH WIND       PRES   REMARKS
CRAIG, CO      CLOUDY    34  31  88 CALM      30.44S
GRAND JUNCTION CLOUDY    47  32  56 E5        30.40S
RIFLE, CO      CLOUDY    38  34  85 CALM      30.45S
MONTROSE, CO   CLOUDY    39  31  72 SE6       30.46R WCI  35
CORTEZ, CO     CLOUDY    39  28  64 E8        30.38S WCI  33
COLORADO CITY    N/A     43  30  61 SE5       30.39R
PAGE, AZ       CLEAR     51  29  42 SW3       30.37R
GRAND CANYON   CLEAR     37  25  61 CALM      30.45S
KINGMAN, AZ    CLEAR     55  31  39 E10       30.26R
FLAGSTAFF, AZ  CLEAR     40  26  57 CALM      30.44S

$$

REGIONAL REPORTS    NEVADA/IDAHO/WYOMING

CITY           SKY/WX    TMP DP  RH WIND       PRES   REMARKS
LAS VEGAS, NV  PTCLDY    66  38  35 S7        30.20R
ELY, NY        PTCLDY    40  27  59 S12       30.44R WCI  33
ELKO, NV       MOCLDY    47  41  80 NE6       30.36S
POCATELLO, ID  CLOUDY    57  41  55 S10       30.33S
BURLEY, ID     PTCLDY    49  43  80 CALM      30.29F
FORT BRIDGER,    N/A     49  38  66 SW14G20   30.47R
EVANSTON, WY   CLOUDY    45  38  76 SW6       30.46R
ROCK SPRINGS,  CLOUDY    47  37  68 W24       30.40F
KEMMERER, WY   CLOUDY    41  36  81 SW7       30.45S

$$




USA.gov is the U.S. government's official web portal to all federal, state and local government web resources and services.